Date,TemperatureHighF,TemperatureAvgF,TemperatureLowF,DewpointHighF,DewpointAvgF,DewpointLowF,HumidityHigh,HumidityAvg,HumidityLow,PressureMaxIn,PressureMinIn,WindSpeedMaxMPH,WindSpeedAvgMPH,GustSpeedMaxMPH,PrecipitationSumIn
2013-1-1,67,55,47,50,38,29,85,55,33,18.32,18.32,6,1,7,0.00
2013-1-2,76,57,53,56,46,31,93,72,22,18.32,18.32,8,1,8,0.12
2013-1-3,54,49,43,39,34,26,72,58,39,18.32,18.32,9,1,9,0.00
2013-1-4,69,45,34,37,26,12,90,54,17,18.32,18.32,11,1,11,0.00
2013-1-5,67,44,29,24,16,10,66,35,15,18.32,18.32,6,0,6,0.00
2013-1-6,54,48,42,39,30,17,79,49,28,18.32,18.32,11,2,13,0.00
2013-1-7,72,44,34,34,24,14,86,51,14,18.32,18.32,13,1,13,0.59
2013-1-8,70,46,34,34,29,24,74,53,23,18.32,18.32,7,1,8,0.00
2013-1-9,73,56,43,50,40,34,84,58,31,18.32,18.32,6,1,6,0.00
2013-1-10,94,63,50,58,46,28,91,62,12,18.32,18.32,9,1,10,0.00
2013-1-11,84,67,62,66,56,43,92,70,26,18.32,18.32,10,1,10,0.59
2013-1-12,94,68,59,60,50,35,91,58,14,18.32,18.32,13,1,13,0.00
2013-1-13,85,68,62,58,51,44,82,57,27,18.32,18.32,15,2,15,0.59
2013-1-14,88,69,62,57,51,38,82,56,19,18.32,18.32,15,2,15,0.59
2013-1-15,85,69,60,56,49,38,85,53,21,18.32,18.32,12,1,12,0.00
2013-1-16,85,69,64,62,53,44,89,59,29,18.32,18.32,13,2,13,0.04
2013-1-17,72,58,43,64,49,26,91,74,40,18.32,18.32,20,4,20,0.43
2013-1-18,78,44,34,36,23,7,89,50,13,18.32,18.32,12,2,12,0.59
2013-1-19,77,46,30,29,20,13,68,40,13,18.32,18.32,7,1,8,0.00
2013-1-20,80,53,40,31,24,16,61,35,13,18.32,18.32,11,2,11,0.59
2013-1-21,71,52,39,26,19,6,59,30,14,18.32,18.32,13,3,15,0.00
2013-1-22,64,43,35,17,5,1,25,21,16,18.32,18.32,15,4,15,0.00
2013-1-23,69,44,31,24,9,-1,38,24,15,18.32,18.32,17,4,17,0.59
2013-1-24,73,52,35,32,20,0,54,30,14,18.32,18.32,17,4,17,0.59
2013-1-25,41,36,29,12,3,-6,32,25,20,18.32,18.32,9,1,9,0.00
2013-1-26,77,48,38,25,20,12,55,35,13,18.32,18.32,8,1,9,0.59
2013-1-27,83,47,34,24,18,11,59,34,12,18.32,18.32,8,2,9,0.00
2013-1-28,71,50,43,39,28,14,75,43,23,18.32,18.32,6,1,6,0.59
2013-1-29,54,46,44,47,40,38,84,80,75,18.32,18.32,5,0,5,0.00